(33) Polyhymnia
ephemeris date magn radius delta ra dec elong phase
Today1 Jul 202514.02.993 AU4.007 AU06h52m+24°15'3.3°1.1°
Opposition3 Feb 202613.43.557 AU2.571 AU09h12m+18°18'177.8°0.6°
(33) Polyhymnia - 2025-07-01
astro.vanbuitenen.nl


 
-1 year
-1 month
-1 day
Now
+1 day
+1 month
+1 year

The interactive orbit chart above shows the body's path through the solar system and its position at the given date. Green and blue lines are shown perpendicular to the ecliptic plane: Green if the path is above the ecliptic plane, blue if it is below. (Left-click and drag to rotate the view; Right-click and drag to move the view; Use scroll wheel to zoom in our out.)

The orbital elements of Polyhymnia are:

            e (Eccentricity)                : 0.3322897
            a (Semimajor axis)              : 2.8752868
            i (Inclination)                 : 1.85104
            Ω (Longitude of ascending node) : 8.36127
            ω (Argument of perihelion)      : 338.75874
            M (Mean anomaly)                : 66.64571
            Epoch                           : 2025 May 05

            L (Longitude of perihelion)     : -12.86989
            B (Latitude of perihelion)      : -0.67052
            P (Orbital period in years)     : 4.88            
        

The light curve chart below shows the estimated development of the minor planet's magnitude.


The all-sky chart below shows the path of the minor planet over the same period as the light curve. The current position is marked yellow.





The following chart shows the path of the minor planet in the next few days. The field of view is optimized for (~10x50) binoculars and finderscopes. A more printer-friendly version of the same chart can be found below.




Ephemerides:
Date       Time       RA (2000)    DEC (2000)    delta   radius  elong  phase   PA    magn
2025-07-01 00:00 UT   06 52 55.6   +24 15 52     4.007    2.993    3.3    1.1    70   14.0 
2025-07-01 21:52 UT   06 54 24.8   +24 13 58     4.011    2.996    2.8    0.9    66   14.0 
2025-07-02 00:00 UT   06 54 33.5   +24 13 47     4.011    2.996    2.8    0.9    65   14.0 
2025-07-03 00:00 UT   06 56 11.2   +24 11 39     4.015    2.999    2.3    0.8    58   14.0 
2025-07-04 00:00 UT   06 57 48.7   +24 09 27     4.018    3.002    1.8    0.6    47   14.0 
2025-07-05 00:00 UT   06 59 26.0   +24 07 12     4.022    3.006    1.5    0.5    31   14.0 
2025-07-06 00:00 UT   07 01 03.1   +24 04 53     4.025    3.009    1.4    0.5     9   14.0 
2025-07-07 00:00 UT   07 02 39.9   +24 02 32     4.028    3.012    1.5    0.5   345   14.0 
2025-07-08 00:00 UT   07 04 16.6   +24 00 07     4.031    3.015    1.8    0.6   328   14.0 
2025-07-09 00:00 UT   07 05 53.0   +23 57 39     4.034    3.018    2.2    0.7   316   14.0 
2025-07-10 00:00 UT   07 07 29.2   +23 55 08     4.037    3.021    2.7    0.9   308   14.1 
2025-07-11 00:00 UT   07 09 05.2   +23 52 33     4.039    3.025    3.2    1.1   303   14.1 
2025-07-12 00:00 UT   07 10 41.0   +23 49 56     4.041    3.028    3.7    1.2   299   14.1 
2025-07-13 00:00 UT   07 12 16.5   +23 47 15     4.044    3.031    4.3    1.4   296   14.1 
2025-07-14 00:00 UT   07 13 51.8   +23 44 32     4.046    3.034    4.8    1.6   294   14.1 
2025-07-15 00:00 UT   07 15 26.9   +23 41 45     4.048    3.037    5.4    1.8   292   14.2 
2025-07-16 00:00 UT   07 17 01.7   +23 38 56     4.049    3.040    6.0    2.0   291   14.2 
2025-07-17 00:00 UT   07 18 36.3   +23 36 03     4.051    3.044    6.5    2.2   290   14.2 
2025-07-18 00:00 UT   07 20 10.6   +23 33 08     4.052    3.047    7.1    2.4   289   14.2 
2025-07-19 00:00 UT   07 21 44.7   +23 30 09     4.054    3.050    7.7    2.6   288   14.2 
2025-07-20 00:00 UT   07 23 18.5   +23 27 08     4.055    3.053    8.3    2.7   288   14.2 
2025-07-21 00:00 UT   07 24 52.1   +23 24 04     4.056    3.056    8.9    2.9   287   14.2 
2025-07-22 00:00 UT   07 26 25.5   +23 20 58     4.057    3.059    9.4    3.1   287   14.3 
2025-07-23 00:00 UT   07 27 58.5   +23 17 48     4.057    3.062   10.0    3.3   286   14.3 
2025-07-24 00:00 UT   07 29 31.3   +23 14 36     4.058    3.065   10.6    3.5   286   14.3 


    Terminology:
            
    delta:  distance between minor planet and earth in AU
    radius: distance between minor planet and sun in AU
    magn:   magnitude (brightness) estimate    
    ra:     right ascension in hours (24h = 360deg)
    dec:    declination in degrees
    elong:  elongation in degrees (angle sun-earth-minor planet)    
    phase:  phase angle in degrees (angle sun-minor planet-earth)        
    AU:     Astronomical Unit (mean distance between earth and sun: 149597870.7 km
    

Orbital elements provided by the MPC (Minor Planet Center).
Calculations by a modified version of AAPlus, a C# implementation of the AA+ project by PJ Naughter from the algorithms presented in the book "Astronomical Algorithms" by Jean Meeus.
NGC2000 dso catalog and star labels from VizieR as provided by the Strasbourg astronomical Data Center.
Tycho2 catalog from the ESO archive.